Погода в Промыслах

Россия / Пермский край     58°33′49″N   59°09′18″E
темп.,
°C
ветер,
м/с
пор.,
м/с
влажн.,
%
обл.,
%
осадки,
мм/ч
давл.,
гПа
погр.,
м
24 мая, вт
вт2423:00+4в0195100 0.6 100217
02:00+4ююз119698 0.0 100417
05:00+4ююв1194100 0.0 100516
08:00+6ююв149398 0.3 1005263
11:00+10ююз357146 0.8 10061156
14:00+11ююз3565100 0.6 10071273
17:00+11ю247691 1.5 1008541
20:00+10вюв0084100 0.8 100911
25 мая, ср
ср2523:00+7ссв1192100 0.8 101013
02:00+7в1196100 0.1 101022
05:00+7ссв2599100 6.0 1009213
08:00+7св2699100 5.6 1007272
11:00+10в1399100 5.9 1007159
14:00+13в1396100 0.8 1006295
17:00+13юв31191100 1.3 1005608
20:00+11всв2399100 2.6 100498
26 мая, чт
чт2623:00+8зюз4996100 4.5 1006409
02:00+7юз4996100 0.1 1008486
05:00+7ююз399561 0.1 1008564
08:00+6юз5108771 0.1 1010878
11:00+9зюз57555 0.1 10101355
14:00+12зюз4645100 0.0 10111813
17:00+12з4647100 0.0 10111507
20:00+9з376279 0.0 1011751
27 мая, пт
пт2723:00+4зсз2884100 0.0 1012216
02:00+3з268993 0.0 1012130
05:00+3з258969 0.0 1012125
08:00+8з47690 0.0 1011607
11:00+11з465594 0.0 10101695
14:00+11з455791 0.3 10101394
17:00+13зюз465642 0.9 10101505
20:00+11з25685 0.1 1010341
28 мая, сб
сб2823:00+6ююз118933 0.1 101111
02:00+8ююз278847 0.0 1011241
05:00+7ю2496100 0.0 1011100
08:00+11ю3107965 0.1 1010625
11:00+14ююз5117174 0.8 10091382
14:00+16юз695857 0.3 10091565
17:00+15юз586692 0.9 10101330
20:00+13юз4108494 0.7 1011808